Hourly Weather Roundup
Issued by NWS Central Illinois

Home | Current Version | Previous Version | Graphics & Text | Print | Product List | Glossary On
Versions: 1 2 3 4 5 6 7 8 9 10 11 12 13 14 15 16 17 18 19 20 21 22 23 24 25 26 27 28 29 30 31 32 33 34 35 36 37 38 39 40 41 42 43 44 45 46 47 48 49 50
406
NZUS43 KILX 300310
HWRILX

AREA WEATHER ROUNDUP
NATIONAL WEATHER SERVICE, LINCOLN IL
1000 PM CDT FRI JUL 29 2016


CITY           SKY/WX    TMP DP  RH WIND       PRES   REMARKS
BLOOMINGTON    CLEAR     73  68  84 CALM      29.94S
CHAMPAIGN      PTCLDY    71  67  87 W5        29.93S
DANVILLE       CLEAR     69  68  98 CALM      29.90S
DECATUR        CLEAR     75  66  73 NW7       29.94R
EFFINGHAM      CLEAR     71  71 100 CALM      29.96R
FLORA          CLOUDY    73  71  93 CALM      29.94R
GALESBURG      CLEAR     68  66  94 CALM      29.94S
JACKSONVILLE   CLEAR     69  66  92 NW3       29.95R
LACON          PTCLDY    67  66  96 CALM      29.94R
LAWRENCEVILLE  PTCLDY    74  71  91 MISG        N/A
LITCHFIELD       N/A    N/A N/A N/A MISG        N/A
$$


CITY           SKY/WX    TMP DP  RH WIND       PRES   REMARKS
LINCOLN        CLEAR     73  68  86 CALM      29.94R
MACOMB         PTCLDY    66  65  96 W5        29.97R
MATTOON        PTCLDY    72  68  87 W3        29.94R
MT CARMEL AP   CLOUDY    73  72  96 CALM      29.94R FOG
OLNEY-NOBLE AP MOCLDY    70  70 100 CALM      29.95R
PARIS          CLEAR     69  69  98 CALM      29.94R
PEORIA         PTCLDY    72  68  87 SW6       29.92F
PONTIAC        CLEAR     70  70 100 NE3       29.94S FOG
RANTOUL        NOT AVBL
ROBINSON       MOCLDY    70  68  95 CALM      29.94R
SPRINGFIELD    CLEAR     73  68  84 N5        29.94R
TAYLORVILLE    CLEAR     69  67  94 MISG      29.95R
$$

...REGIONAL REPORTS...


CITY           SKY/WX    TMP DP  RH WIND       PRES   REMARKS
CHICAGO O`HARE MOCLDY    71  67  87 N9        29.95R
KANKAKEE       PTCLDY    69  66  90 CALM      29.94S
MOLINE         CLOUDY    71  66  84 E8        29.95R
MOUNT STERLING CLEAR     67  65  90 NW3       29.94S
MOUNT VERNON   CLOUDY    73  70  88 CALM      29.95R
PITTSFIELD     CLEAR     69  67  93 CALM      29.96R
QUINCY         CLEAR     71  67  87 CALM      29.95R
ROCKFORD       CLOUDY    69  65  86 NE9       29.98S
$$


CITY           SKY/WX    TMP DP  RH WIND       PRES   REMARKS
BURLINGTON     PTCLDY    70  67  90 N7        29.94S
CEDAR RAPIDS   CLOUDY    68  67  96 N8        29.96S
DES MOINES     MOCLDY    68  64  87 NW5       30.00R
KIRKSVILLE     CLEAR     69  63  81 N8        29.99R
OTTUMWA        PTCLDY    65  63  93 NW6       29.98S
ST LOUIS       PTCLDY    78  67  68 N3        29.94R HX  80
$$


CITY           SKY/WX    TMP DP  RH WIND       PRES   REMARKS
TERRE HAUTE    CLEAR     73  69  87 CALM      29.93R
EVANSVILLE     CLOUDY    75  72  90 SW3       29.95R
INDIANAPOLIS   PTCLDY    74  68  81 E6        29.94R
LAFAYETTE      PTCLDY    70  68  93 NW3       29.91S
MADISON        CLOUDY    68  62  81 NE3       30.01R
MILWAUKEE      PTCLDY    69  65  86 N10       29.99S
$$






USA.gov is the U.S. government's official web portal to all federal, state and local government web resources and services.